Location: Dos Palmas
(32.4468°N, 116.8732°W)
Time: 05:39:40
(UTC+00:00)

CZ-2D R/B - Pass Details

Date: 20 June 2021
Orbit: 791 x 845 km, 98.7° (Epoch: 29 July)

Event Time Altitude Azimuth Distance (km) Brightness Sun altitude
Rises 08:22:53 0° 29° (NNE) 3,292 6.2 -33.5°
Reaches altitude 10° 08:25:38 10° 42° (NE) 2,360 5.1 -33.4°
Enters shadow 08:28:31 22° 74° (ENE) 1,668 3.9 -33.3°
